Location: Unspecified
(41.1637°N, 24.2901°E)
Time: 15:44:57
(UTC+02:00)

ISS - Pass Details

Date: 01 July 2022
Orbit: 414 x 420 km, 51.6° (Epoch: 05 July)

Event Time Altitude Azimuth Distance (km) Brightness Sun altitude
Exits shadow 03:22:09 15° 273° (W) 1,211 -1.8 -13.9°
Maximum altitude 03:24:27 34° 333° (NNW) 711 -2.4 -13.6°
Drops below altitude 10° 03:27:34 10° 41° (NE) 1,501 0.5 -13.3°
Sets 03:29:48 0° 51° (NE) 2,369 2.0 -13.0°
